Tracking 19817 objects as of 17-Aug-2019
HD Live streaming from Space Station
objects crossing your sky now

COSMOS 2251 DEB

Track COSMOS 2251 DEB now!
10-day predictions


NORAD ID: 34560
Int'l Code: 1993-036UW
Perigee: 737.5 km
Apogee: 778.7 km
Inclination: 74.0 °
Period: 99.8 minutes
Semi major axis: 7129 km
RCS: 0.031 m2 (small)
Launch date: June 16, 1993
Source: Commonwealth of Independent States (former USSR) (CIS)
Launch site: PLESETSK MISSILE AND SPACE COMPLEX (PKMTR)

Note: This is SATELLITE DEBRIS
aabbcc
Your satellite tracking list
Your tracking list is empty




NASA's NSSDC Master Catalog

Two Line Element Set (TLE):
1 34560U 93036UW  19229.20369181  .00000426  00000-0  13637-3 0  9997
2 34560  74.0280 159.5748 0028864  82.8633  36.0924 14.42281875548382
Source of the keplerian elements: AFSPC